カタログに戻る

STARLINK-34935

運用中通信SSO
NORAD 65277·PAYLOAD·🇺🇸 United States

打ち上げ Aug 22, 2025 から Vandenberg Space Force Base

Loading…

次のパス (今後24時間)

TLE

最新Source: CelesTrak SupGP

元期: Sep 15, 2026, 03:21 UTC

1 65277C 25184E   26258.14006944  .00020300  00000+0  63017-3 0  2580
2 65277  97.2829 306.1193 0001055  85.9922  81.1627 15.33429414    17

AllMySatでSTARLINK-34935をリアルタイム追跡

Download on the App Store